Tracking 31027 objects as of 19-Jul-2025
HD Live streaming from Space Station
objects crossing your sky now

EKRAN 4

Track EKRAN 4 now!
EKRAN 4 is classified as:


NORAD ID: 11561
Int'l Code: 1979-087A
Perigee: 35,732.1 km
Apogee: 35,840.5 km
Inclination: 6.4 °
Period: 1,435.7 minutes
Semi major axis: 42157 km
RCS: 0.1995 m2 (medium)
Launch date: October 3, 1979
Source: Commonwealth of Independent States (former USSR) (CIS)
Launch site: TYURATAM MISSILE AND SPACE COMPLEX (TTMTR)
Your satellite tracking list
SL-16 DEB
Track 1 satellite(s)




NASA's NSSDC Master Catalog

Two Line Element Set (TLE):
1 11561U 79087A   25199.65980219  .00000084  00000-0  00000-0 0  9993
2 11561   6.4225 288.2453 0012858 190.3183 111.5967  1.00298340 44023
Source of the keplerian elements: AFSPC